Showing default

PUNCH-WFI03, 63180

Orbit data source: Space-Track

PUNCH-WFI03, 63180 is an American payload satellite in SSO that was launched on Wed, 12 Mar 2025 UTC via an FALCON 9 launch vehicle from the Air Force Western Test Range (AFWTR). Payload-class satellites include a variety of spacecraft equipped with specific instruments for various scientific and technological missions. These include communications satellites like Starlink; space stations such as the ISS; scientific satellites like the Hubble; Earth observation satellites from companies like Planet Labs, Umbra, and HawkEye 360; GPS; miniature CubeSats for education and research; and military/defense satellites.

Loading next visibility...
Identifier
63180, 2025-047C
Orbit
SSO
Country
Flag of USUS
Related business
Manufacturer
SWRI
Mission
Operational Civil Astronomy
Bus & Motor
PUNCH, Unknown motor
Mass
64 kg wet, 64 kg dry
Launch date (UTC)
2025-03-12 (1 year ago)
Launch vehicle
FALCON 9
Launch site
Air Force Western Test Range (AFWTR)
Object type
Payload
Rocket body
Debris
Shape & HBR
Box + 1 Pan, 1.9 m
Radar Cross Section
0.625 m², Medium (>0.1 m² and < 1m²)

Expand to show TLE details & history
Last TLE update: 10 hours ago

TLE from 10 hours ago
0 PUNCH-WFI03
1 63180U 25047C   26095.25439011  .00000903  00000-0  14401-3 0  9998
2 63180  97.9547 281.6403 0011033  48.3723 311.8428 14.74272363 57312
Epoch: 2026-04-05T06:06Z
TLE epoch observation values (Epoch: 2026-04-05T06:06:19.305Z)
Latitude
-0.00011°
Longitude
-3.50257°
Altitude
645.307 km
Speed
7.538 km/s
True Right ascension
18h 46m 33s
True Declination
0° 00' 00"
Sunlit
Object was in daylight at epoch
Visualization orbit readout
Latitude
Unknown
Longitude
Unknown
Altitude
Unknown
Speed
Unknown
Apparent Right ascension
Unknown
Apparent Declination
Unknown
Sunlit
N/A
Visualization observer readout
Local Sidereal Time
21:58:55
Azimuth
Unknown
Elevation
Unknown
Doppler factor
Unknown
Orbital elements
Apogee altitude
652.261 km
Perigee altitude
636.765 km
Semi-major axis
7,022.65 km
Eccentricity
0.0011
Inclination
97.9547°
RAAN
281.6403°
Arg. of periapsis
48.3723°
True anomaly
311.74853°
Mean anomaly
311.8428°
Eccentric anomaly
311.79567°
Mean motion
3.68801 °/min
Orbital period
97.61 mins
BSTAR
0.00014401
Loading maneuver chart data...
Computing Atmospheric mass density...
Loading historical data...
Loading historical data...
Loading historical data...
Loading historical data...
Loading historical data...
Loading historical data...
Loading historical data...
Other satellites on launch #47 in the year 2025 (2025-03-12 UTC)

Documentation

Showing up to 5 results
|